"Pseudo-MPEC" for P20Il4e

Created 2018 Jul 14 13:18:41 UT using Find_Orb

Click here for an explanation of pseudo-MPECs

 
 Astrometry: 
     P20Il4e  C2018 07 10J9AstrometrylyE);:X$\MR)CPe^AeUXLqHjg9Nrdg?=3X'[6cbhF52
     P20Il4e  C2018 07 10l_rWC9vRrHIjpm10A]N/kvYI#n_@0'2oyCml@EhI.9sI^WQG3vwlF52
     P20Il4e  C2018 07 10E`^tJe`@)30#XOF'7_x1b6Bm]/iZVh4pbAEHac+NM/,/hnH@Y0V!F52
     P20Il4e KC2018 07 11#mdF'@4o7:WX_%sH0redacted;GOs-,\O*oY:K4qrR=ys+n0EKB*J04
     P20Il4e KC2018 07 11*;,ob6hIBKyB/nUJtCulOmFHx:2D@T(JIi?1%b5!g4wv(,V)vIXiJ04
     P20Il4e KC2018 07 11I'Acme]HH.Kk']JiLKV`Sh.Sy7)oLKPn4D3LF5Zqa.*+ZUa@Wnc?J04
     P20Il4e KC2018 07 12bV+d25V#TmO)cr/%n0;#K[5tDTv`e[Jkm9!MqVAF0$d(gic[y$_$734
     P20Il4e KC2018 07 129tx8NNxm0#^Wp:_gpZ4^xcKA-@^Fxw@wsee5HKh5ETG;n`)d@qEX734
     P20Il4e |C2018 07 13ob)jhj0L6.#0_mYe[uO!ADa$b[ua9DIC47gxc$ag4F4G1ovfOgJJ807
     P20Il4e |C2018 07 14OOf0$N$Iw!]ih6,FwM5Ca\U0YA__b0c79)=1fc[$RI:^p7f+4MAC807
     P20Il4e |C2018 07 14^C9'-V`tqT^Z5290K/!7n6i3DR]Ya:QbLZKZr,J5rcyCLU4NEOCP807

Station data:
(734) Farpoint Observatory, Eskridge  (N38.890107 W96.001400)  US/Kansas.
   Observer G. Hug. .3 meter s-c + CCD.
(807) Cerro Tololo Observatory, La Serena  (S30.169136 W70.805900)  Chile.
   1.5-m Ritchey-Chrétien.
(F52) Pan-STARRS 2, Haleakala  (N20.707384 W156.255910)  US/Hawaii.
(J04) ESA Optical Ground Station, Tenerife  (N28.300924 W16.511830)  Canary
   Islands (Spain).  Observer D. Abreu. Measurers M. Micheli, D. Koschny, E.
   Schwab, M. Busch, A. Knöfel. 1.0-m f/4.4 reflector + CCD.

Orbital elements:  P20Il4e
   Perihelion 2019 Jul 21.073918 +/- 34.3 TT =  1:46:26 (JD 2458685.573918)
Epoch 2018 Jul 14.0 TT = JDT 2458313.5   Earth MOID: 0.6801   AutoNEOCP
M 249.38656 +/- 15                  (J2000 ecliptic)
n   0.29728888 +/- 0.016            Peri.  201.41470 +/- 9
a   2.22339659 +/- 0.0797           Node   192.53097 +/- 1.4
e   0.2514135 +/- 0.0186            Incl.   25.15906 +/- 0.29
P   3.32                   H 17.5   G  0.15   U 10.0  
q 1.66440449 +/- 0.0194    Q 2.78238869 +/- 0.145
From 11 observations 2018 July 10-14; mean residual 0".39
Residuals in arcseconds: 
180710 F52  .13+  .18+    180711 J04  .10+  .40+    180713 807  .08-  .08-    
180710 F52  .19-  .15-    180711 J04  .09-  .19+    180714 807  .04+  .27+    
180710 F52  .02+  .09-    180712 734  .42-  1.4-    180714 807  .05+  .11-    
180711 J04  .24+  .33+    180712 734  .24+  .63+    

Ephemerides (geocentric):
Date (UTC) HH   RA              Dec         delta   r     elong  mag " sig PA
---- -- -- --  -------------   -----------  ------ ------ -----  --- ---- ---
2018 07 14 13  16 06 26.017   +11 46 07.29  1.8694 2.5245 119.0 21.9  .46 143
2018 07 14 14  16 06 25.289   +11 45 52.96  1.8697 2.5244 119.0 21.9  .49 143
2018 07 14 15  16 06 24.563   +11 45 38.61  1.8700 2.5243 119.0 21.9  .51 143
2018 07 14 16  16 06 23.841   +11 45 24.24  1.8703 2.5242 118.9 21.9  .54 143
2018 07 14 17  16 06 23.121   +11 45 09.85  1.8706 2.5241 118.9 21.9  .56 143
2018 07 14 18  16 06 22.404   +11 44 55.43  1.8709 2.5241 118.9 21.9  .59 143
2018 07 14 19  16 06 21.690   +11 44 41.00  1.8712 2.5240 118.9 21.9  .61 143
2018 07 14 20  16 06 20.979   +11 44 26.55  1.8715 2.5239 118.8 21.9  .64 143
2018 07 14 21  16 06 20.271   +11 44 12.08  1.8718 2.5238 118.8 21.9  .67 143
2018 07 14 22  16 06 19.565   +11 43 57.59  1.8721 2.5237 118.8 21.9  .70 142
2018 07 14 23  16 06 18.862   +11 43 43.08  1.8724 2.5236 118.7 21.9  .73 142
2018 07 15 00  16 06 18.162   +11 43 28.55  1.8727 2.5235 118.7 21.9  .75 142
2018 07 15 01  16 06 17.465   +11 43 13.99  1.8730 2.5234 118.7 21.9  .78 142
2018 07 15 02  16 06 16.771   +11 42 59.42  1.8733 2.5233 118.6 21.9  .81 142
2018 07 15 03  16 06 16.080   +11 42 44.83  1.8736 2.5232 118.6 21.9  .84 142
2018 07 15 04  16 06 15.391   +11 42 30.22  1.8739 2.5232 118.6 21.9  .87 142
2018 07 15 05  16 06 14.706   +11 42 15.59  1.8742 2.5231 118.5 21.9  .90 142
2018 07 15 06  16 06 14.023   +11 42 00.94  1.8745 2.5230 118.5 21.9  .94 142
2018 07 15 07  16 06 13.343   +11 41 46.27  1.8748 2.5229 118.5 21.9  .97 142
2018 07 15 08  16 06 12.665   +11 41 31.58  1.8751 2.5228 118.4 21.9  1.0 142
2018 07 15 09  16 06 11.991   +11 41 16.87  1.8754 2.5227 118.4 21.9  1.0 142
2018 07 15 10  16 06 11.320   +11 41 02.14  1.8757 2.5226 118.4 21.9  1.1 142
2018 07 15 11  16 06 10.651   +11 40 47.39  1.8760 2.5225 118.3 21.9  1.1 142
2018 07 15 12  16 06 09.985   +11 40 32.62  1.8763 2.5224 118.3 21.9  1.1 142
2018 07 15 13  16 06 09.322   +11 40 17.84  1.8766 2.5223 118.3 21.9  1.2 142
2018 07 15 14  16 06 08.662   +11 40 03.03  1.8769 2.5223 118.2 21.9  1.2 142
2018 07 15 15  16 06 08.005   +11 39 48.20  1.8772 2.5222 118.2 21.9  1.2 141
2018 07 15 16  16 06 07.350   +11 39 33.35  1.8775 2.5221 118.2 21.9  1.3 141
2018 07 15 17  16 06 06.699   +11 39 18.49  1.8778 2.5220 118.2 21.9  1.3 141
2018 07 15 18  16 06 06.050   +11 39 03.60  1.8781 2.5219 118.1 21.9  1.3 141
2018 07 15 19  16 06 05.404   +11 38 48.70  1.8784 2.5218 118.1 21.9  1.4 141
2018 07 15 20  16 06 04.761   +11 38 33.77  1.8787 2.5217 118.1 21.9  1.4 141
2018 07 15 21  16 06 04.120   +11 38 18.83  1.8790 2.5216 118.0 21.9  1.5 141
2018 07 15 22  16 06 03.483   +11 38 03.87  1.8793 2.5215 118.0 21.9  1.5 141
2018 07 15 23  16 06 02.848   +11 37 48.88  1.8796 2.5214 118.0 21.9  1.5 141
2018 07 16 00  16 06 02.217   +11 37 33.88  1.8799 2.5214 117.9 21.9  1.6 141
2018 07 16 01  16 06 01.588   +11 37 18.86  1.8802 2.5213 117.9 21.9  1.6 141
2018 07 16 02  16 06 00.962   +11 37 03.82  1.8805 2.5212 117.9 21.9  1.7 141
2018 07 16 03  16 06 00.339   +11 36 48.76  1.8808 2.5211 117.8 21.9  1.7 141
2018 07 16 04  16 05 59.718   +11 36 33.68  1.8811 2.5210 117.8 21.9  1.7 141
2018 07 16 05  16 05 59.101   +11 36 18.59  1.8814 2.5209 117.8 21.9  1.8 141
2018 07 16 06  16 05 58.486   +11 36 03.47  1.8817 2.5208 117.7 21.9  1.8 141
2018 07 16 07  16 05 57.874   +11 35 48.33  1.8820 2.5207 117.7 21.9  1.9 141
2018 07 16 08  16 05 57.265   +11 35 33.18  1.8823 2.5206 117.7 21.9  1.9 141
2018 07 16 09  16 05 56.659   +11 35 18.01  1.8827 2.5205 117.6 21.9  2.0 141
2018 07 16 10  16 05 56.056   +11 35 02.81  1.8830 2.5204 117.6 21.9  2.0 141
2018 07 16 11  16 05 55.455   +11 34 47.60  1.8833 2.5204 117.6 21.9  2.0 141
2018 07 16 12  16 05 54.858   +11 34 32.37  1.8836 2.5203 117.5 21.9  2.1 141